| time (UTC) | temp F | wind direction | speed MPH | gust MPH | rain 1hr in | rain 24hr in | rain mn in | humidity % | barometer mb |
| 20260507093543 | 28 | 24 | 2.0 | 3.0 | 0.00 | 0.00 | 0.00 | 76 | 1012.9 |
| 20260507093042 | 28 | 26 | 2.0 | 3.0 | 0.00 | 0.00 | 0.00 | 76 | 1012.8 |
| 20260507092537 | 28 | 45 | 0.0 | 2.0 | 0.00 | 0.00 | 0.00 | 77 | 1012.7 |
| 20260507092035 | 27 | 0 | 1.0 | 2.0 | 0.00 | 0.00 | 0.00 | 77 | 1012.6 |
| 20260507091531 | 27 | 28 | 0.0 | 2.0 | 0.00 | 0.00 | 0.00 | 78 | 1012.8 |
| 20260507091027 | 26 | 45 | 2.0 | 3.0 | 0.00 | 0.00 | 0.00 | 79 | 1012.6 |
| 20260507090523 | 26 | 0 | 2.0 | 3.0 | 0.00 | 0.00 | 0.00 | 78 | 1012.8 |
| 20260507090020 | 26 | 12 | 2.0 | 3.0 | 0.00 | 0.00 | 0.00 | 78 | 1012.8 |
| 20260507085518 | 26 | 52 | 3.0 | 4.0 | 0.00 | 0.00 | 0.00 | 79 | 1012.8 |
| 20260507085014 | 26 | 42 | 3.0 | 3.0 | 0.00 | 0.00 | 0.00 | 78 | 1012.7 |
| 20260507084511 | 26 | 18 | 1.0 | 3.0 | 0.00 | 0.00 | 0.00 | 79 | 1012.9 |
| 20260507084008 | 26 | 29 | 0.0 | 0.0 | 0.00 | 0.00 | 0.00 | 79 | 1012.5 |
| 20260507083504 | 26 | 26 | 0.0 | 2.0 | 0.00 | 0.00 | 0.00 | 78 | 1012.7 |
| 20260507083001 | 26 | 38 | 2.0 | 3.0 | 0.00 | 0.00 | 0.00 | 78 | 1012.8 |
| 20260507082457 | 25 | 66 | 0.0 | 2.0 | 0.00 | 0.00 | 0.00 | 79 | 1012.7 |
| 20260507081953 | 25 | 98 | 0.0 | 2.0 | 0.00 | 0.00 | 0.00 | 79 | 1012.7 |
| 20260507081450 | 24 | 111 | 0.0 | 2.0 | 0.00 | 0.00 | 0.00 | 79 | 1012.8 |
| 20260507080947 | 25 | 209 | 0.0 | 1.0 | 0.00 | 0.00 | 0.00 | 78 | 1012.9 |
| 20260507080442 | 25 | 180 | 0.0 | 1.0 | 0.00 | 0.00 | 0.00 | 78 | 1013.1 |
| 20260507075938 | 25 | 180 | 0.0 | 0.0 | 0.00 | 0.00 | 0.00 | 79 | 1012.9 |
| 20260507075435 | 25 | 180 | 0.0 | 2.0 | 0.00 | 0.00 | 0.00 | 78 | 1013.1 |
| 20260507074931 | 25 | 203 | 1.0 | 2.0 | 0.00 | 0.00 | 0.00 | 78 | 1012.9 |
| 20260507074428 | 25 | 180 | 0.0 | 2.0 | 0.00 | 0.00 | 0.00 | 78 | 1013.2 |
| 20260507073926 | 25 | 192 | 1.0 | 2.0 | 0.00 | 0.00 | 0.00 | 78 | 1013.2 |
| 20260507073422 | 25 | 225 | 2.0 | 2.0 | 0.00 | 0.00 | 0.00 | 78 | 1013.2 |
| 20260507072919 | 25 | 199 | 2.0 | 2.0 | 0.00 | 0.00 | 0.00 | 77 | 1013.1 |
| 20260507072417 | 26 | 195 | 2.0 | 2.0 | 0.00 | 0.00 | 0.00 | 77 | 1013.2 |
| 20260507071914 | 26 | 176 | 2.0 | 2.0 | 0.00 | 0.00 | 0.00 | 76 | 1013.2 |
| 20260507071411 | 26 | 157 | 0.0 | 1.0 | 0.00 | 0.00 | 0.00 | 76 | 1013.2 |
| 20260507070907 | 27 | 164 | 0.0 | 1.0 | 0.00 | 0.00 | 0.00 | 75 | 1013.2 |
| 20260507070405 | 27 | 166 | 0.0 | 1.0 | 0.00 | 0.00 | 0.00 | 75 | 1013.2 |
| 20260507065901 | 27 | 151 | 0.0 | 0.0 | 0.00 | 0.00 | 0.00 | 75 | 1013.2 |
| 20260507065358 | 27 | 157 | 0.0 | 1.0 | 0.00 | 0.00 | 0.00 | 76 | 1013.5 |
| 20260507064855 | 26 | 168 | 0.0 | 0.0 | 0.00 | 0.00 | 0.00 | 77 | 1013.3 |
| 20260507064354 | 26 | 194 | 0.0 | 0.0 | 0.00 | 0.00 | 0.00 | 77 | 1013.4 |
| 20260507063851 | 26 | 180 | 0.0 | 2.0 | 0.00 | 0.00 | 0.00 | 77 | 1013.4 |
| 20260507063348 | 27 | 198 | 0.0 | 3.0 | 0.00 | 0.00 | 0.00 | 76 | 1013.5 |
| 20260507062845 | 27 | 210 | 2.0 | 4.0 | 0.00 | 0.00 | 0.00 | 75 | 1013.4 |
| 20260507062341 | 28 | 200 | 1.0 | 2.0 | 0.00 | 0.00 | 0.00 | 74 | 1013.3 |
| 20260507061839 | 28 | 180 | 1.0 | 1.0 | 0.00 | 0.00 | 0.00 | 74 | 1013.5 |
| 20260507061337 | 28 | 180 | 1.0 | 1.0 | 0.00 | 0.00 | 0.00 | 74 | 1013.4 |
| 20260507060836 | 28 | 184 | 0.0 | 2.0 | 0.00 | 0.00 | 0.00 | 74 | 1013.4 |
| 20260507060332 | 28 | 198 | 1.0 | 2.0 | 0.00 | 0.00 | 0.00 | 74 | 1013.4 |
| 20260507055829 | 29 | 201 | 2.0 | 3.0 | 0.00 | 0.00 | 0.00 | 73 | 1013.5 |
| 20260507055324 | 29 | 209 | 0.0 | 2.0 | 0.00 | 0.00 | 0.00 | 74 | 1013.5 |
| 20260507054821 | 29 | 206 | 2.0 | 3.0 | 0.00 | 0.00 | 0.00 | 73 | 1013.5 |
| 20260507054316 | 29 | 192 | 1.0 | 2.0 | 0.00 | 0.00 | 0.00 | 72 | 1013.6 |
| 20260507053814 | 29 | 194 | 1.0 | 1.0 | 0.00 | 0.00 | 0.00 | 71 | 1013.6 |
| 20260507053312 | 30 | 203 | 1.0 | 2.0 | 0.00 | 0.00 | 0.00 | 71 | 1013.6 |
| 20260507052811 | 30 | 180 | 0.0 | 2.0 | 0.00 | 0.00 | 0.00 | 70 | 1013.5 |
| 20260507052307 | 30 | 173 | 1.0 | 1.0 | 0.00 | 0.00 | 0.00 | 71 | 1013.7 |
| 20260507051805 | 30 | 169 | 0.0 | 2.0 | 0.00 | 0.00 | 0.00 | 71 | 1013.8 |
| 20260507051302 | 30 | 157 | 0.0 | 1.0 | 0.00 | 0.00 | 0.00 | 70 | 1013.6 |
| 20260507050759 | 31 | 180 | 0.0 | 2.0 | 0.00 | 0.00 | 0.00 | 69 | 1013.6 |
| 20260507050255 | 32 | 175 | 0.0 | 2.0 | 0.00 | 0.00 | 0.00 | 69 | 1013.7 |
| 20260507045752 | 33 | 172 | 2.0 | 2.0 | 0.00 | 0.00 | 0.00 | 67 | 1013.6 |
| 20260507045249 | 33 | 160 | 0.0 | 1.0 | 0.00 | 0.00 | 0.00 | 66 | 1013.7 |
| 20260507044746 | 33 | 36 | 0.0 | 2.0 | 0.00 | 0.00 | 0.00 | 66 | 1014.0 |
| 20260507044242 | 34 | 173 | 0.0 | 0.0 | 0.00 | 0.00 | 0.00 | 65 | 1013.7 |
| 20260507043738 | 34 | 157 | 0.0 | 1.0 | 0.00 | 0.00 | 0.00 | 65 | 1013.8 |
| 20260507043235 | 34 | 180 | 1.0 | 1.0 | 0.00 | 0.00 | 0.00 | 66 | 1013.6 |
| 20260507042731 | 34 | 151 | 0.0 | 1.0 | 0.00 | 0.00 | 0.00 | 64 | 1013.8 |
| 20260507042226 | 35 | 173 | 0.0 | 1.0 | 0.00 | 0.00 | 0.00 | 63 | 1013.9 |
| 20260507041724 | 36 | 173 | 0.0 | 0.0 | 0.00 | 0.00 | 0.00 | 63 | 1013.9 |
| 20260507041221 | 36 | 180 | 0.0 | 1.0 | 0.00 | 0.00 | 0.00 | 62 | 1013.9 |
| 20260507040718 | 36 | 165 | 0.0 | 1.0 | 0.00 | 0.00 | 0.00 | 63 | 1014.0 |
| 20260507040214 | 36 | 120 | 0.0 | 2.0 | 0.00 | 0.00 | 0.00 | 63 | 1014.0 |
| 20260507035710 | 37 | 154 | 0.0 | 0.0 | 0.00 | 0.00 | 0.00 | 62 | 1014.1 |
| 20260507035205 | 37 | 160 | 1.0 | 2.0 | 0.00 | 0.00 | 0.00 | 61 | 1014.2 |
| 20260507034702 | 37 | 186 | 0.0 | 0.0 | 0.00 | 0.00 | 0.00 | 62 | 1014.0 |
| 20260507034200 | 37 | 186 | 0.0 | 1.0 | 0.00 | 0.00 | 0.00 | 61 | 1014.0 |
| 20260507033658 | 38 | 180 | 2.0 | 3.0 | 0.00 | 0.00 | 0.00 | 59 | 1014.1 |
| 20260507033155 | 38 | 166 | 1.0 | 2.0 | 0.00 | 0.00 | 0.00 | 58 | 1014.0 |
| 20260507032653 | 39 | 66 | 1.0 | 1.0 | 0.00 | 0.00 | 0.00 | 57 | 1014.1 |
| 20260507032148 | 39 | 145 | 0.0 | 0.0 | 0.00 | 0.00 | 0.00 | 57 | 1014.3 |
| 20260507031645 | 39 | 145 | 0.0 | 1.0 | 0.00 | 0.00 | 0.00 | 56 | 1014.2 |
| 20260507031142 | 40 | 140 | 0.0 | 2.0 | 0.00 | 0.00 | 0.00 | 56 | 1014.2 |
| 20260507030639 | 41 | 83 | 1.0 | 2.0 | 0.00 | 0.00 | 0.00 | 52 | 1014.2 |
| 20260507030137 | 41 | 90 | 2.0 | 3.0 | 0.00 | 0.00 | 0.00 | 51 | 1014.0 |
| 20260507025633 | 42 | 86 | 3.0 | 4.0 | 0.00 | 0.00 | 0.00 | 51 | 1014.1 |
| 20260507025130 | 42 | 69 | 3.0 | 4.0 | 0.00 | 0.00 | 0.00 | 50 | 1014.0 |
| 20260507024628 | 42 | 95 | 2.0 | 5.0 | 0.00 | 0.00 | 0.00 | 49 | 1014.1 |
| 20260507024125 | 43 | 58 | 4.0 | 5.0 | 0.00 | 0.00 | 0.00 | 49 | 1014.1 |
| 20260507023621 | 43 | 59 | 6.0 | 6.0 | 0.00 | 0.00 | 0.00 | 48 | 1014.0 |
| 20260507023119 | 43 | 45 | 4.0 | 6.0 | 0.00 | 0.00 | 0.00 | 48 | 1014.2 |
| 20260507022615 | 43 | 51 | 3.0 | 5.0 | 0.00 | 0.00 | 0.00 | 49 | 1014.1 |
| 20260507022110 | 44 | 38 | 3.0 | 6.0 | 0.00 | 0.00 | 0.00 | 48 | 1013.9 |
| 20260507021607 | 44 | 54 | 3.0 | 4.0 | 0.00 | 0.00 | 0.00 | 47 | 1013.9 |
| 20260507021103 | 45 | 47 | 3.0 | 5.0 | 0.00 | 0.00 | 0.00 | 46 | 1014.0 |
| 20260507020602 | 46 | 67 | 3.0 | 5.0 | 0.00 | 0.00 | 0.00 | 45 | 1014.0 |
| 20260507020057 | 46 | 42 | 3.0 | 6.0 | 0.00 | 0.00 | 0.00 | 45 | 1013.9 |
| 20260507015556 | 46 | 36 | 3.0 | 5.0 | 0.00 | 0.00 | 0.00 | 44 | 1014.1 |
| 20260507015053 | 46 | 73 | 6.0 | 6.0 | 0.00 | 0.00 | 0.00 | 44 | 1014.1 |
| 20260507014550 | 47 | 55 | 0.0 | 6.0 | 0.00 | 0.00 | 0.00 | 44 | 1014.0 |
| 20260507014045 | 47 | 116 | 3.0 | 5.0 | 0.00 | 0.00 | 0.00 | 44 | 1014.1 |
| 20260507013542 | 47 | 45 | 6.0 | 6.0 | 0.00 | 0.00 | 0.00 | 44 | 1013.8 |
| 20260507013039 | 47 | 66 | 4.0 | 5.0 | 0.00 | 0.00 | 0.00 | 43 | 1013.9 |
| 20260507012537 | 48 | 46 | 5.0 | 7.0 | 0.00 | 0.00 | 0.00 | 42 | 1013.9 |
| 20260507012032 | 48 | 71 | 3.0 | 4.0 | 0.00 | 0.00 | 0.00 | 42 | 1014.0 |
| 20260507011530 | 48 | 60 | 3.0 | 4.0 | 0.00 | 0.00 | 0.00 | 41 | 1013.8 |
| 20260507011026 | 49 | 55 | 2.0 | 5.0 | 0.00 | 0.00 | 0.00 | 42 | 1014.0 |
| 20260507010520 | 49 | 78 | 3.0 | 4.0 | 0.00 | 0.00 | 0.00 | 43 | 1014.0 |
| 20260507010017 | 49 | 63 | 3.0 | 4.0 | 0.00 | 0.00 | 0.00 | 42 | 1014.1 |
| 20260507005515 | 49 | 33 | 3.0 | 5.0 | 0.00 | 0.00 | 0.00 | 40 | 1014.0 |
| 20260507005011 | 50 | 40 | 3.0 | 7.0 | 0.00 | 0.00 | 0.00 | 38 | 1014.1 |
| 20260507004508 | 51 | 32 | 4.0 | 5.0 | 0.00 | 0.00 | 0.00 | 38 | 1014.2 |
| 20260507004006 | 51 | 17 | 3.0 | 7.0 | 0.00 | 0.00 | 0.00 | 39 | 1014.1 |
| 20260507003501 | 51 | 30 | 4.0 | 6.0 | 0.00 | 0.00 | 0.00 | 38 | 1014.2 |
| 20260507002955 | 51 | 15 | 3.0 | 9.0 | 0.00 | 0.00 | 0.00 | 37 | 1014.2 |
| 20260507002453 | 52 | 18 | 4.0 | 9.0 | 0.00 | 0.00 | 0.00 | 36 | 1014.2 |
| 20260507001949 | 52 | 353 | 2.0 | 6.0 | 0.00 | 0.00 | 0.00 | 36 | 1014.0 |
| 20260507001446 | 51 | 17 | 0.0 | 9.0 | 0.00 | 0.00 | 0.00 | 36 | 1014.2 |
| 20260507000944 | 53 | 18 | 3.0 | 6.0 | 0.00 | 0.00 | 0.00 | 34 | 1014.3 |
| 20260507000439 | 52 | 17 | 2.0 | 9.0 | 0.00 | 0.00 | 0.00 | 33 | 1014.3 |
| 20260506235935 | 53 | 317 | 5.0 | 5.0 | 0.00 | 0.00 | 0.00 | 34 | 1014.1 |
| 20260506235432 | 53 | 19 | 2.0 | 3.0 | 0.00 | 0.00 | 0.00 | 33 | 1014.1 |
| 20260506234927 | 53 | 298 | 7.0 | 12.0 | 0.00 | 0.00 | 0.00 | 35 | 1014.3 |
| 20260506234425 | 52 | 23 | 7.0 | 8.0 | 0.00 | 0.00 | 0.00 | 34 | 1014.3 |
| 20260506233923 | 53 | 353 | 4.0 | 12.0 | 0.00 | 0.00 | 0.00 | 34 | 1014.4 |
| 20260506233419 | 53 | 334 | 6.0 | 11.0 | 0.00 | 0.00 | 0.00 | 34 | 1014.4 |
| 20260506232916 | 52 | 343 | 5.0 | 12.0 | 0.00 | 0.00 | 0.00 | 34 | 1014.3 |
| 20260506232412 | 52 | 31 | 4.0 | 9.0 | 0.00 | 0.00 | 0.00 | 36 | 1014.4 |
| 20260506231908 | 52 | 50 | 3.0 | 7.0 | 0.00 | 0.00 | 0.00 | 36 | 1014.5 |
| 20260506231406 | 53 | 350 | 5.0 | 8.0 | 0.00 | 0.00 | 0.00 | 34 | 1014.9 |
| 20260506230903 | 52 | 341 | 4.0 | 11.0 | 0.00 | 0.00 | 0.00 | 34 | 1014.5 |
| 20260506230359 | 51 | 327 | 11.0 | 15.0 | 0.00 | 0.00 | 0.00 | 35 | 1014.6 |
| 20260506225856 | 52 | 340 | 3.0 | 13.0 | 0.00 | 0.00 | 0.00 | 36 | 1014.6 |
| 20260506225353 | 53 | 330 | 7.0 | 8.0 | 0.00 | 0.00 | 0.00 | 35 | 1014.9 |
| 20260506224850 | 53 | 15 | 5.0 | 9.0 | 0.00 | 0.00 | 0.00 | 33 | 1014.9 |
| 20260506224348 | 55 | 0 | 2.0 | 11.0 | 0.00 | 0.00 | 0.00 | 35 | 1014.9 |
| 20260506223844 | 54 | 307 | 3.0 | 8.0 | 0.00 | 0.00 | 0.00 | 33 | 1014.9 |
| 20260506223339 | 54 | 319 | 2.0 | 15.0 | 0.00 | 0.00 | 0.00 | 35 | 1014.9 |
| 20260506222836 | 53 | 138 | 3.0 | 7.0 | 0.00 | 0.00 | 0.00 | 32 | 1015.1 |
| 20260506222332 | 54 | 208 | 5.0 | 5.0 | 0.00 | 0.00 | 0.00 | 33 | 1015.0 |
| 20260506221830 | 53 | 109 | 3.0 | 6.0 | 0.00 | 0.00 | 0.00 | 35 | 1014.9 |
| 20260506221327 | 54 | 40 | 4.0 | 10.0 | 0.00 | 0.00 | 0.00 | 34 | 1015.1 |
| 20260506220825 | 54 | 0 | 1.0 | 4.0 | 0.00 | 0.00 | 0.00 | 36 | 1015.1 |
| 20260506220320 | 53 | 341 | 6.0 | 13.0 | 0.00 | 0.00 | 0.00 | 35 | 1015.2 |
| 20260506215817 | 53 | 306 | 9.0 | 11.0 | 0.00 | 0.00 | 0.00 | 35 | 1015.1 |
| 20260506215313 | 52 | 6 | 4.0 | 5.0 | 0.00 | 0.00 | 0.00 | 35 | 1015.2 |
| 20260506214809 | 55 | 225 | 4.0 | 10.0 | 0.00 | 0.00 | 0.00 | 36 | 1015.4 |
| 20260506214306 | 52 | 300 | 5.0 | 11.0 | 0.00 | 0.00 | 0.00 | 36 | 1015.6 |
| 20260506213804 | 53 | 237 | 5.0 | 5.0 | 0.00 | 0.00 | 0.00 | 35 | 1015.7 |
| 20260506213300 | 54 | 292 | 7.0 | 13.0 | 0.00 | 0.00 | 0.00 | 33 | 1015.6 |
| 20260506212758 | 53 | 180 | 2.0 | 9.0 | 0.00 | 0.00 | 0.00 | 35 | 1015.7 |
| 20260506212254 | 52 | 327 | 3.0 | 10.0 | 0.00 | 0.00 | 0.00 | 37 | 1015.9 |
| 20260506211749 | 51 | 348 | 3.0 | 9.0 | 0.00 | 0.00 | 0.00 | 36 | 1015.8 |
| 20260506211245 | 52 | 290 | 7.0 | 11.0 | 0.00 | 0.00 | 0.00 | 36 | 1016.0 |
| 20260506210743 | 53 | 341 | 4.0 | 11.0 | 0.00 | 0.00 | 0.00 | 36 | 1016.2 |
| 20260506210239 | 51 | 324 | 3.0 | 9.0 | 0.00 | 0.00 | 0.00 | 37 | 1016.2 |
| 20260506205736 | 52 | 302 | 4.0 | 16.0 | 0.00 | 0.00 | 0.00 | 38 | 1016.1 |
| 20260506205232 | 52 | 205 | 6.0 | 12.0 | 0.00 | 0.00 | 0.00 | 35 | 1016.2 |
| 20260506204729 | 53 | 234 | 4.0 | 5.0 | 0.00 | 0.00 | 0.00 | 35 | 1016.2 |
| 20260506204226 | 52 | 27 | 6.0 | 9.0 | 0.00 | 0.00 | 0.00 | 37 | 1016.4 |
| 20260506203724 | 52 | 217 | 10.0 | 10.0 | 0.00 | 0.00 | 0.00 | 36 | 1016.4 |
| 20260506203221 | 52 | 19 | 5.0 | 8.0 | 0.00 | 0.00 | 0.00 | 37 | 1016.4 |
| 20260506202719 | 52 | 342 | 8.0 | 12.0 | 0.00 | 0.00 | 0.00 | 36 | 1016.7 |
| 20260506202215 | 51 | 317 | 3.0 | 7.0 | 0.00 | 0.00 | 0.00 | 39 | 1016.8 |
| 20260506201712 | 51 | 285 | 0.0 | 9.0 | 0.00 | 0.00 | 0.00 | 38 | 1016.8 |
| 20260506201209 | 49 | 300 | 2.0 | 10.0 | 0.00 | 0.00 | 0.00 | 39 | 1016.8 |
| 20260506200705 | 50 | 19 | 6.0 | 15.0 | 0.00 | 0.00 | 0.00 | 38 | 1017.0 |
| 20260506200203 | 51 | 339 | 2.0 | 5.0 | 0.00 | 0.00 | 0.00 | 37 | 1016.7 |
| 20260506195659 | 51 | 356 | 6.0 | 10.0 | 0.00 | 0.00 | 0.00 | 38 | 1016.9 |
| 20260506195155 | 50 | 236 | 3.0 | 7.0 | 0.00 | 0.00 | 0.00 | 38 | 1017.1 |
| 20260506194653 | 50 | 248 | 6.0 | 8.0 | 0.00 | 0.00 | 0.00 | 38 | 1017.1 |
| 20260506194149 | 51 | 296 | 7.0 | 11.0 | 0.00 | 0.00 | 0.00 | 38 | 1017.1 |
| 20260506193647 | 53 | 278 | 5.0 | 11.0 | 0.00 | 0.00 | 0.00 | 39 | 1017.0 |
| 20260506193143 | 49 | 259 | 3.0 | 6.0 | 0.00 | 0.00 | 0.00 | 39 | 1017.2 |
| 20260506192640 | 50 | 332 | 6.0 | 11.0 | 0.00 | 0.00 | 0.00 | 40 | 1017.4 |
| 20260506192136 | 49 | 0 | 4.0 | 8.0 | 0.00 | 0.00 | 0.00 | 41 | 1017.4 |
| 20260506191634 | 48 | 358 | 3.0 | 13.0 | 0.00 | 0.00 | 0.00 | 40 | 1017.3 |
| 20260506191129 | 49 | 330 | 8.0 | 9.0 | 0.00 | 0.00 | 0.00 | 41 | 1017.5 |
| 20260506190627 | 49 | 206 | 2.0 | 6.0 | 0.00 | 0.00 | 0.00 | 41 | 1017.3 |
| 20260506190123 | 49 | 341 | 6.0 | 15.0 | 0.00 | 0.00 | 0.00 | 39 | 1017.6 |
| 20260506185621 | 51 | 279 | 4.0 | 11.0 | 0.00 | 0.00 | 0.00 | 39 | 1017.5 |
| 20260506185117 | 50 | 270 | 2.0 | 7.0 | 0.00 | 0.00 | 0.00 | 41 | 1017.5 |
| 20260506184614 | 48 | 320 | 4.0 | 9.0 | 0.00 | 0.00 | 0.00 | 41 | 1017.5 |
| 20260506184111 | 48 | 242 | 6.0 | 13.0 | 0.00 | 0.00 | 0.00 | 41 | 1017.6 |
| 20260506183608 | 48 | 247 | 5.0 | 11.0 | 0.00 | 0.00 | 0.00 | 41 | 1017.8 |
| 20260506183104 | 49 | 311 | 5.0 | 11.0 | 0.00 | 0.00 | 0.00 | 42 | 1018.0 |
| 20260506182602 | 47 | 344 | 9.0 | 19.0 | 0.00 | 0.00 | 0.00 | 42 | 1017.9 |
| 20260506182058 | 49 | 220 | 3.0 | 8.0 | 0.00 | 0.00 | 0.00 | 40 | 1018.0 |
| 20260506181556 | 48 | 298 | 3.0 | 13.0 | 0.00 | 0.00 | 0.00 | 41 | 1018.2 |
| 20260506181053 | 50 | 317 | 3.0 | 12.0 | 0.00 | 0.00 | 0.00 | 42 | 1018.1 |
| 20260506180550 | 50 | 213 | 6.0 | 15.0 | 0.00 | 0.00 | 0.00 | 41 | 1018.2 |
| 20260506180046 | 48 | 219 | 5.0 | 18.0 | 0.00 | 0.00 | 0.00 | 44 | 1018.2 |
| 20260506175543 | 47 | 236 | 6.0 | 10.0 | 0.00 | 0.00 | 0.00 | 43 | 1018.5 |
| 20260506175039 | 48 | 289 | 3.0 | 11.0 | 0.00 | 0.00 | 0.00 | 42 | 1018.6 |
| 20260506174538 | 49 | 198 | 5.0 | 8.0 | 0.00 | 0.00 | 0.00 | 42 | 1018.7 |
| 20260506174033 | 46 | 338 | 4.0 | 16.0 | 0.00 | 0.00 | 0.00 | 43 | 1018.8 |
| 20260506173532 | 48 | 237 | 1.0 | 10.0 | 0.00 | 0.00 | 0.00 | 41 | 1018.7 |
| 20260506173028 | 48 | 297 | 3.0 | 12.0 | 0.00 | 0.00 | 0.00 | 44 | 1018.8 |
| 20260506172526 | 45 | 26 | 6.0 | 10.0 | 0.00 | 0.00 | 0.00 | 45 | 1018.5 |
| 20260506172022 | 48 | 223 | 5.0 | 6.0 | 0.00 | 0.00 | 0.00 | 42 | 1018.8 |
| 20260506171519 | 48 | 220 | 3.0 | 10.0 | 0.00 | 0.00 | 0.00 | 44 | 1018.9 |
| 20260506171017 | 46 | 101 | 2.0 | 11.0 | 0.00 | 0.00 | 0.00 | 43 | 1018.8 |
| 20260506170514 | 47 | 308 | 5.0 | 8.0 | 0.00 | 0.00 | 0.00 | 46 | 1019.0 |
| 20260506170006 | 46 | 278 | 3.0 | 10.0 | 0.00 | 0.00 | 0.00 | 45 | 1019.3 |
| 20260506165504 | 47 | 277 | 4.0 | 17.0 | 0.00 | 0.00 | 0.00 | 43 | 1018.8 |
| 20260506165000 | 47 | 201 | 3.0 | 7.0 | 0.00 | 0.00 | 0.00 | 45 | 1019.2 |
| 20260506164456 | 47 | 235 | 3.0 | 13.0 | 0.00 | 0.00 | 0.00 | 44 | 1019.1 |
| 20260506163954 | 45 | 353 | 2.0 | 10.0 | 0.00 | 0.00 | 0.00 | 46 | 1019.1 |
| 20260506163449 | 46 | 344 | 4.0 | 7.0 | 0.00 | 0.00 | 0.00 | 44 | 1019.3 |
| 20260506162944 | 46 | 337 | 9.0 | 15.0 | 0.00 | 0.00 | 0.00 | 44 | 1019.4 |
| 20260506162442 | 44 | 348 | 10.0 | 12.0 | 0.00 | 0.00 | 0.00 | 47 | 1019.6 |
| 20260506161939 | 45 | 206 | 5.0 | 9.0 | 0.00 | 0.00 | 0.00 | 48 | 1019.5 |
| 20260506161437 | 44 | 348 | 2.0 | 11.0 | 0.00 | 0.00 | 0.00 | 48 | 1019.4 |
| 20260506160934 | 45 | 255 | 7.0 | 10.0 | 0.00 | 0.00 | 0.00 | 47 | 1019.6 |
| 20260506160432 | 45 | 210 | 7.0 | 13.0 | 0.00 | 0.00 | 0.00 | 47 | 1019.5 |
| 20260506155929 | 44 | 82 | 1.0 | 9.0 | 0.00 | 0.00 | 0.00 | 48 | 1019.7 |
| 20260506155426 | 44 | 289 | 4.0 | 7.0 | 0.00 | 0.00 | 0.00 | 48 | 1019.6 |
| 20260506153548 | 44 | 230 | 5.0 | 6.0 | 0.00 | 0.00 | 0.00 | 48 | 1019.6 |
| 20260506153045 | 43 | 270 | 2.0 | 8.0 | 0.00 | 0.00 | 0.00 | 49 | 1019.7 |
| 20260506152542 | 43 | 306 | 6.0 | 13.0 | 0.00 | 0.00 | 0.00 | 49 | 1019.8 |
| 20260506152040 | 42 | 285 | 0.0 | 7.0 | 0.00 | 0.00 | 0.00 | 50 | 1019.9 |
| 20260506151538 | 42 | 358 | 7.0 | 9.0 | 0.00 | 0.00 | 0.00 | 52 | 1019.8 |
| 20260506151035 | 42 | 359 | 5.0 | 9.0 | 0.00 | 0.00 | 0.00 | 51 | 1019.7 |
| 20260506150531 | 42 | 2 | 3.0 | 5.0 | 0.00 | 0.00 | 0.00 | 51 | 1019.9 |
| 20260506150028 | 42 | 251 | 0.0 | 8.0 | 0.00 | 0.00 | 0.00 | 53 | 1019.7 |
| 20260506145525 | 41 | 202 | 5.0 | 7.0 | 0.00 | 0.00 | 0.00 | 53 | 1019.8 |
| 20260506145023 | 41 | 18 | 1.0 | 5.0 | 0.00 | 0.00 | 0.00 | 60 | 1020.0 |
| 20260506144519 | 40 | 9 | 2.0 | 6.0 | 0.00 | 0.00 | 0.00 | 59 | 1020.0 |
| 20260506144017 | 40 | 32 | 4.0 | 7.0 | 0.00 | 0.00 | 0.00 | 60 | 1019.9 |
| 20260506143514 | 39 | 356 | 2.0 | 3.0 | 0.00 | 0.00 | 0.00 | 63 | 1019.9 |
| 20260506143013 | 39 | 133 | 0.0 | 3.0 | 0.00 | 0.00 | 0.00 | 62 | 1019.8 |
| 20260506142510 | 38 | 352 | 2.0 | 7.0 | 0.00 | 0.00 | 0.00 | 64 | 1020.0 |
| 20260506142008 | 39 | 31 | 5.0 | 5.0 | 0.00 | 0.00 | 0.00 | 63 | 1020.2 |
| 20260506141505 | 38 | 180 | 1.0 | 2.0 | 0.00 | 0.00 | 0.00 | 63 | 1019.9 |
| 20260506141004 | 37 | 323 | 0.0 | 3.0 | 0.00 | 0.00 | 0.00 | 64 | 1019.9 |
| 20260506140500 | 37 | 165 | 0.0 | 2.0 | 0.00 | 0.00 | 0.00 | 64 | 1020.2 |
| 20260506135957 | 36 | 157 | 1.0 | 3.0 | 0.00 | 0.00 | 0.00 | 66 | 1020.2 |
| 20260506135454 | 35 | 307 | 2.0 | 5.0 | 0.00 | 0.00 | 0.00 | 66 | 1020.2 |
| 20260506134950 | 34 | 286 | 2.0 | 5.0 | 0.00 | 0.00 | 0.00 | 68 | 1020.2 |
| 20260506134446 | 34 | 213 | 2.0 | 2.0 | 0.00 | 0.00 | 0.00 | 71 | 1019.9 |
| 20260506133943 | 32 | 337 | 0.0 | 4.0 | 0.00 | 0.00 | 0.00 | 72 | 1019.8 |
| 20260506133440 | 32 | 237 | 0.0 | 3.0 | 0.00 | 0.00 | 0.00 | 72 | 1020.0 |
| 20260506132937 | 32 | 166 | 1.0 | 3.0 | 0.00 | 0.00 | 0.00 | 71 | 1020.0 |
| 20260506132434 | 31 | 6 | 0.0 | 3.0 | 0.00 | 0.00 | 0.00 | 73 | 1019.9 |
| 20260506131932 | 31 | 187 | 0.0 | 3.0 | 0.00 | 0.00 | 0.00 | 71 | 1020.2 |
| 20260506131428 | 30 | 189 | 0.0 | 4.0 | 0.00 | 0.00 | 0.00 | 72 | 1020.2 |
| 20260506130925 | 29 | 243 | 3.0 | 9.0 | 0.00 | 0.00 | 0.00 | 75 | 1019.8 |
| 20260506130421 | 28 | 221 | 2.0 | 9.0 | 0.00 | 0.00 | 0.00 | 76 | 1019.8 |
| 20260506125920 | 28 | 216 | 8.0 | 9.0 | 0.00 | 0.00 | 0.00 | 77 | 1019.7 |
| 20260506125418 | 27 | 232 | 4.0 | 8.0 | 0.00 | 0.00 | 0.00 | 78 | 1019.8 |
| 20260506124916 | 26 | 194 | 4.0 | 8.0 | 0.00 | 0.00 | 0.00 | 78 | 1019.8 |
| 20260506124413 | 26 | 214 | 5.0 | 10.0 | 0.00 | 0.00 | 0.00 | 79 | 1019.7 |
| 20260506123911 | 25 | 225 | 6.0 | 10.0 | 0.00 | 0.00 | 0.00 | 80 | 1019.8 |
| 20260506123408 | 24 | 229 | 4.0 | 10.0 | 0.00 | 0.00 | 0.00 | 80 | 1019.8 |
| 20260506122906 | 23 | 289 | 1.0 | 7.0 | 0.00 | 0.00 | 0.00 | 81 | 1019.7 |
| 20260506122402 | 23 | 206 | 5.0 | 5.0 | 0.00 | 0.00 | 0.00 | 82 | 1019.6 |
| 20260506121901 | 22 | 212 | 2.0 | 5.0 | 0.00 | 0.00 | 0.00 | 82 | 1019.7 |
| 20260506121357 | 21 | 218 | 4.0 | 6.0 | 0.00 | 0.00 | 0.00 | 83 | 1019.4 |
| 20260506120854 | 20 | 212 | 3.0 | 7.0 | 0.00 | 0.00 | 0.00 | 84 | 1019.5 |
| 20260506120352 | 20 | 223 | 5.0 | 5.0 | 0.00 | 0.00 | 0.00 | 84 | 1019.6 |
| 20260506115849 | 20 | 212 | 3.0 | 4.0 | 0.00 | 0.00 | 0.00 | 84 | 1019.4 |
| 20260506115347 | 19 | 213 | 3.0 | 4.0 | 0.00 | 0.00 | 0.00 | 84 | 1019.1 |
| 20260506114845 | 20 | 210 | 4.0 | 5.0 | 0.00 | 0.00 | 0.00 | 83 | 1019.3 |
| 20260506114342 | 20 | 213 | 2.0 | 3.0 | 0.00 | 0.00 | 0.00 | 83 | 1019.3 |
| 20260506113841 | 20 | 206 | 2.0 | 3.0 | 0.00 | 0.00 | 0.00 | 83 | 1019.3 |
| 20260506113338 | 20 | 208 | 0.0 | 3.0 | 0.00 | 0.00 | 0.00 | 83 | 1019.5 |
| 20260506112834 | 20 | 196 | 1.0 | 3.0 | 0.00 | 0.00 | 0.00 | 83 | 1019.4 |
| 20260506112332 | 21 | 180 | 0.0 | 3.0 | 0.00 | 0.00 | 0.00 | 83 | 1019.3 |
| 20260506111829 | 21 | 35 | 0.0 | 1.0 | 0.00 | 0.00 | 0.00 | 83 | 1019.6 |
| 20260506111327 | 22 | 8 | 2.0 | 4.0 | 0.00 | 0.00 | 0.00 | 83 | 1019.5 |
| 20260506110824 | 22 | 305 | 3.0 | 4.0 | 0.00 | 0.00 | 0.00 | 82 | 1019.6 |
| 20260506110321 | 22 | 337 | 0.0 | 4.0 | 0.00 | 0.00 | 0.00 | 83 | 1019.3 |
| 20260506105818 | 21 | 349 | 2.0 | 5.0 | 0.00 | 0.00 | 0.00 | 84 | 1019.3 |
| 20260506105315 | 21 | 29 | 3.0 | 4.0 | 0.00 | 0.00 | 0.00 | 84 | 1019.4 |
| 20260506104812 | 21 | 3 | 3.0 | 5.0 | 0.00 | 0.00 | 0.00 | 83 | 1019.3 |
| 20260506104310 | 21 | 4 | 2.0 | 5.0 | 0.00 | 0.00 | 0.00 | 81 | 1019.4 |
| 20260506103807 | 22 | 319 | 2.0 | 3.0 | 0.00 | 0.00 | 0.00 | 82 | 1019.3 |
| 20260506103304 | 22 | 292 | 2.0 | 4.0 | 0.00 | 0.00 | 0.00 | 82 | 1019.1 |
| 20260506102802 | 21 | 233 | 0.0 | 3.0 | 0.00 | 0.00 | 0.00 | 82 | 1019.3 |
| 20260506102300 | 21 | 187 | 0.0 | 1.0 | 0.00 | 0.00 | 0.00 | 82 | 1019.2 |
| 20260506101757 | 21 | 201 | 0.0 | 2.0 | 0.00 | 0.00 | 0.00 | 83 | 1019.1 |
| 20260506101253 | 20 | 180 | 0.0 | 2.0 | 0.00 | 0.00 | 0.00 | 83 | 1019.0 |
| 20260506100751 | 20 | 208 | 3.0 | 3.0 | 0.00 | 0.00 | 0.00 | 83 | 1019.0 |
| 20260506100249 | 21 | 225 | 2.0 | 3.0 | 0.00 | 0.00 | 0.00 | 81 | 1019.1 |
| 20260506095747 | 23 | 270 | 0.0 | 2.0 | 0.00 | 0.00 | 0.00 | 82 | 1019.1 |
| 20260506095244 | 22 | 9 | 2.0 | 4.0 | 0.00 | 0.00 | 0.00 | 82 | 1019.1 |
| 20260506094740 | 22 | 194 | 1.0 | 2.0 | 0.00 | 0.00 | 0.00 | 81 | 1018.9 |
| 20260506094239 | 22 | 194 | 1.0 | 1.0 | 0.00 | 0.00 | 0.00 | 81 | 1019.0 |
| 20260506093737 | 23 | 203 | 0.0 | 1.0 | 0.00 | 0.00 | 0.00 | 81 | 1019.1 |